Regional Weather Roundup
Issued by NWS

Home | Current Version | Previous Version | Graphics & Text | Print | Product List | Glossary On
Versions: 1 2 3 4 5 6 7 8 9 10 11 12 13 14 15 16 17 18 19 20 21 22 23 24 25 26 27 28 29 30 31 32 33 34 35 36 37 38 39 40 41 42 43 44 45 46 47 48 49 50
000
ASUS43 KMKX 280000
RWRWI

WISCONSIN REGIONAL WEATHER ROUNDUP
NATIONAL WEATHER SERVICE MILWAUKEE/SULLIVAN WI
700 PM CDT MON JUL 27 2015

NOTE: "FAIR" INDICATES FEW OR NO CLOUDS BELOW 12,000 FEET WITH NO
SIGNIFICANT WEATHER AND/OR OBSTRUCTIONS TO VISIBILITY.

WIZ001-002-006>008-014>016-023>028-280100-
NORTHWEST WISCONSIN

CITY           SKY/WX    TMP DP  RH WIND       PRES   REMARKS
SUPERIOR ARPT  MOSUNNY   77  69  77 NE8       29.92R
ASHLAND        SUNNY     85  60  42 S5        29.94S HX  85
6HR MIN TEMP:  85; 6HR MAX TEMP:  90;

HAYWARD        SUNNY     83  63  50 SE8       29.97S HX  84
6HR MIN TEMP:  83; 6HR MAX TEMP:  86;

SIREN          MOSUNNY   84  66  55 SE12      29.94R HX  86
CUMBERLAND     MOSUNNY   77  64  65 SE9       29.96S
RICE LAKE      SUNNY     81  64  56 SE9       29.97S HX  83
CHETEK         SUNNY     82  67  59 SE9       29.95F HX  85
LADYSMITH      MOSUNNY   83  62  49 SE6       30.00S HX  84
EAU CLAIRE     MOSUNNY   84  67  56 SE13      29.94S HX  86
6HR MIN TEMP:  82; 6HR MAX TEMP:  86;

MENOMONIE      MOSUNNY   83  68  60 SE6       29.94F HX  86
NEW RICHMOND   MOSUNNY   82  68  62 SE9       29.94S HX  85
OSCEOLA        MOSUNNY   81  70  69 SE7       29.95S HX  84
$$

WIZ003>005-009-010-017-018-280100-
NORTH CENTRAL WISCONSIN

CITY           SKY/WX    TMP DP  RH WIND       PRES   REMARKS
MANITOWISH WTR SUNNY     83  59  44 SE5       30.01R HX  83
ARBOR VITAE    SUNNY     83  59  43 S9        30.01S HX  83
WOODRUFF       SUNNY     83  59  43 S9        30.01S HX  83
RHINELANDER    SUNNY     83  59  44 S7        30.03S HX  83
6HR MIN TEMP:  83; 6HR MAX TEMP:  88;

EAGLE RIVER    SUNNY     83  56  38 S7        30.02S HX  82
LAND O LAKES   SUNNY     85  55  35 S7        30.02F HX  84
PHILLIPS       SUNNY     81  62  52 S10       30.00S HX  82
TOMAHAWK       MOSUNNY   82  60  45 SE3       30.02R HX  82
MEDFORD        PTSUNNY   78  65  64 SE6       30.00F HX  80
MERRILL        NOT AVBL
$$

WIZ029-030-035-036-043>047-280100-
CENTRAL WISCONSIN

CITY           SKY/WX    TMP DP  RH WIND       PRES   REMARKS
WAUSAU         MOSUNNY   82  62  50 SE12      29.99S HX  83
6HR MIN TEMP:  82; 6HR MAX TEMP:  87;

MOSINEE        NOT AVBL
MARSHFIELD     PTSUNNY   82  63  52 SE5       29.99F HX  83
6HR MIN TEMP:  81; 6HR MAX TEMP:  86;

STEVENS POINT  MOSUNNY   82  63  52 SE7       29.99F HX  83
WAUPACA        MOSUNNY   87  62  42 SE7       29.99F HX  87
WAUTOMA        NOT AVBL
WISC RAPIDS    MOSUNNY   83  59  44 S8        29.99S HX  83
6HR MIN TEMP:  83; 6HR MAX TEMP:  88;

CAMP DOUGLAS   NOT AVBL
$$

WIZ011>013-019>022-031-037>040-048>050-280100-
NORTHEAST WISCONSIN

CITY           SKY/WX    TMP DP  RH WIND       PRES   REMARKS
ANTIGO         MOSUNNY   81  63  54 SE12      30.03F HX  82
SHAWANO        SUNNY     85  64  48 SE3       30.00S HX  86
OCONTO         SUNNY     84  64  50 S6        29.99F HX  85
STURGEON BAY   SUNNY     81  61  50 S7        30.03S HX  81
GREEN BAY      SUNNY     83  63  50 SE8       30.00S HX  84
6HR MIN TEMP:  83; 6HR MAX TEMP:  87;

MANITOWOC      NOT AVBL
APPLETON       MOSUNNY   82  59  44 SE7         N/A  HX  82
CLINTONVILLE   MOSUNNY   84  61  45 S8        30.00S HX  84
OSHKOSH        MOSUNNY   83  62  49 SE7       29.99F HX  84
6HR MIN TEMP:  83; 6HR MAX TEMP:  87;

$$

WIZ032>034-041-042-053>061-280100-
SOUTHWEST WISCONSIN

CITY           SKY/WX    TMP DP  RH WIND       PRES   REMARKS
LA CROSSE      PTSUNNY   86  68  54 SE10      29.93S HX  89
6HR MIN TEMP:  85; 6HR MAX TEMP:  87;

SPARTA         PTSUNNY   84  64  50 SE5       29.96S HX  85
VIROQUA        PTSUNNY   82  68  63 SE7       29.98S HX  85
BOSCOBEL       PTSUNNY   84  69  60 CALM      29.95S HX  88
6HR MIN TEMP:  84; 6HR MAX TEMP:  90;

PRAIRIE DU CHI CLOUDY    83  66  57 SE6       29.93F HX  85
PLATTEVILLE    CLOUDY    82  71  70 CALM      29.98S HX  86
$$

WIZ056-057-062-063-064-067-068-280100-
SOUTH CENTRAL WISCONSIN

CITY           SKY/WX    TMP DP  RH WIND       PRES   REMARKS
REEDSBURG      PTSUNNY   83  69  63 CALM      29.97S HX  86
BARABOO/DELLS  PTSUNNY   83  64  51 SE7       29.98S HX  85
LONE ROCK      NOT AVBL
MINERAL POINT  PTSUNNY   82  70  65 S3        29.99R HX  86
MADISON        PTSUNNY   82  62  50 SE12      29.97F HX  83
6HR MIN TEMP:  82; 6HR MAX TEMP:  87;

MIDDLETON      PTSUNNY   84  59  42 SE10      29.99S HX  84
WATERTOWN      MOSUNNY   81  65  56 E5        29.99S HX  83
MONROE         CLOUDY    81  68  65 E5        29.98F HX  83
JANESVILLE     SUNNY     82  64  54 E9        29.98S HX  84
$$

WIZ051-052-058>065-066-070>072-280100-
SOUTHEAST WISCONSIN

CITY           SKY/WX    TMP DP  RH WIND       PRES   REMARKS
MILWAUKEE      PTSUNNY   78  63  59 E5        30.00S HX  80
6HR MIN TEMP:  78; 6HR MAX TEMP:  85;

WAUKESHA       SUNNY     79  57  47 SE12      30.01F HX  80
MILWAUKEE/TIMM SUNNY     82  55  39 E6        30.01S HX  82
RACINE         MOSUNNY   77  63  61 NE5       30.02S
6HR MIN TEMP:  77; 6HR MAX TEMP:  83;

BURLINGTON     MOSUNNY   80  60  51 E7        29.99F HX  80
KENOSHA        MOSUNNY   76  64  66 E7        30.01S
6HR MIN TEMP:  76; 6HR MAX TEMP:  84;

FOND DU LAC    SUNNY     82  61  48 SE8       30.00S HX  83
6HR MIN TEMP:  82; 6HR MAX TEMP:  87;

SHEBOYGAN      MOSUNNY   81  63  54 SE3       30.01F HX  82
6HR MIN TEMP:  80; 6HR MAX TEMP:  85;

WEST BEND      SUNNY     81  59  47 CALM      30.01F HX  81
JUNEAU           N/A     82  63  53 SE5       30.01F HX  83
$$

LSZ147-162-280100-
LAKE SUPERIOR

STATION/POSITION TIME  TEMP    WIND        PRES    WAVE
                       AIR SEA DIR/SP/G            HT/PER
                 (UTC) (F)     (DEG/KT/KT) (MB)    (FT/S)
W MID LAKE BUOY  2250   69 67   30/  6/  6 1013.9F   0
DEVILS ISLAND    2200   75      80/  7/  8 1013.9F
PORT WING        2200   79      40/ 10/ 13 1013.5F
SAXON HARBOR     2200   78                 1013.9
$$

LMZ867-665-643>646-280100-
LAKE MICHIGAN

STATION/POSITION TIME  TEMP    WIND        PRES    WAVE
                       AIR SEA DIR/SP/G            HT/PER
                 (UTC) (F)     (DEG/KT/KT) (MB)    (FT/S)
CHAMBERS ISLAND  2200   85     210/  3/  8 1015.6F
N MID LAKE BUOY  2250   73 71  220/  6/  6 1015.6F   0
NORTHPORT PIER   2200   85      60/  2/  4 1015.9F
SISTER BAY       2329   85     280/  6/  6   N/A
ALGOMA LAKESHORE 2342             CALM       N/A
KEWAUNEE LAKESHO 2300   75     160/  3/  3 1016.1F
SHEBOYGAN LAKESH 2300   76     130/  3/  3 1016.4F
PORT WASHINGTON  2200   80      40/  3/  4 1016.9F
ATWATER BUOY     2300   74      10/  2/  2 1017.6F
MILWAUKEE LAKESH 2300   74      40/  6/  7   N/A
KENOSHA   LAKESH 2200   76      30/  5/  6 1015.6F
$$

TC  - TEMPERATURE IN CELSIUS
VSB - VISIBILITY IN STATUTE MILES
WCI - WIND CHILL INDEX
HX  - HEAT INDEX



USA.gov is the U.S. government's official web portal to all federal, state and local government web resources and services.